Weather History for KBPC - January, 2014

Change the Weather History Date:

Saturday, January 18, 2014

  Actual Average Record
Temperature  
Mean Temperature 43 °F -  
Max Temperature 60 °F - - ()
Min Temperature 26 °F - - ()
Degree Days  
Heating Degree Days 22    
Moisture  
Dew Point 17 °F    
Average Humidity 40    
Maximum Humidity 74    
Minimum Humidity 16    
Precipitation  
Precipitation 0.00 in - - ()
Sea Level Pressure  
Sea Level Pressure 30.13 in    
Wind  
Wind Speed 10 mph (WNW)    
Max Wind Speed 25 mph    
Max Gust Speed 38 mph    
Visibility 10 miles    
Events      
Averages and records for this station are not official NWS values.
T = Trace of Precipitation, MM = Missing Value Source: NWS Daily Summary

Daily Weather History Graph

Daily Weather History Graph

Search for Another Location

Airport or City:

Trip Planner

Search our weather history database for the weather conditions in past years. The results will help you decide how hot, cold, wet, or windy it might be!

Date:

Astronomy

Jan. 18, 2014 Rise Set
Actual Time 7:52 AM CST 5:56 PM CST
Civil Twilight 7:25 AM CST 6:24 PM CST
Nautical Twilight 6:53 AM CST 6:55 PM CST
Astronomical Twilight 6:23 AM CST 7:26 PM CST
Moon 8:33 PM CST (1/18) 8:59 AM CST (1/18)
Length of Visible Light 10h 59m
Length of Day
10h 04m
Waning Gibbous, 94% of the Moon is Illuminated
Jan 18
Waning Gibbous
Jan 23
Last Quarter
Jan 30
New
Feb 6
First Quarter
Feb 14
Full

Hourly Weather History & Observations

Time (CST) Temp. Windchill Dew Point Humidity Pressure Visibility Wind Dir Wind Speed Gust Speed Precip Events Conditions
12:15 AM 35.6 °F 28.0 °F 17.6 °F 48% 30.05 in 10.0 mi SW 10.4 mph - N/A   Clear
12:35 AM 33.8 °F 27.0 °F 19.4 °F 56% 30.05 in 10.0 mi SW 8.1 mph - N/A   Clear
12:55 AM 35.6 °F 28.0 °F 19.4 °F 52% 30.04 in 10.0 mi SW 10.4 mph - N/A   Clear
1:15 AM 35.6 °F 28.6 °F 19.4 °F 52% 30.04 in 10.0 mi SW 9.2 mph - N/A   Clear
1:35 AM 33.8 °F 25.8 °F 19.4 °F 56% 30.04 in 10.0 mi SW 10.4 mph - N/A   Clear
1:55 AM 33.8 °F 25.8 °F 19.4 °F 56% 30.04 in 10.0 mi SW 10.4 mph - N/A   Clear
2:15 AM 33.8 °F 26.4 °F 19.4 °F 56% 30.04 in 10.0 mi SW 9.2 mph - N/A   Clear
2:35 AM 33.8 °F - 19.4 °F 56% 30.04 in 10.0 mi Calm Calm - N/A   Clear
2:55 AM 32.0 °F - 19.4 °F 60% 30.05 in 10.0 mi Calm Calm - N/A   Clear
3:15 AM 33.8 °F - 19.4 °F 56% 30.06 in 10.0 mi Calm Calm - N/A   Clear
3:35 AM 32.0 °F 28.7 °F 19.4 °F 60% 30.06 in 10.0 mi West 3.5 mph - N/A   Clear
3:55 AM 32.0 °F 28.7 °F 19.4 °F 60% 30.06 in 10.0 mi WSW 3.5 mph - N/A   Clear
4:15 AM 30.2 °F 24.3 °F 19.4 °F 64% 30.05 in 10.0 mi SW 5.8 mph - N/A   Clear
4:35 AM 30.2 °F 24.3 °F 17.6 °F 60% 30.05 in 10.0 mi SW 5.8 mph - N/A   Clear
4:55 AM 28.4 °F 22.2 °F 17.6 °F 64% 30.05 in 10.0 mi SW 5.8 mph - N/A   Clear
5:15 AM 26.6 °F 16.8 °F 17.6 °F 69% 30.04 in 10.0 mi SW 10.4 mph - N/A   Clear
5:35 AM 32.0 °F 24.2 °F 19.4 °F 60% 30.04 in 10.0 mi SW 9.2 mph - N/A   Clear
5:55 AM 32.0 °F 24.8 °F 19.4 °F 60% 30.04 in 10.0 mi WSW 8.1 mph - N/A   Clear
6:15 AM 32.0 °F 24.2 °F 19.4 °F 60% 30.04 in 10.0 mi WSW 9.2 mph - N/A   Clear
6:35 AM 28.4 °F 20.4 °F 19.4 °F 69% 30.05 in 10.0 mi WSW 8.1 mph - N/A   Clear
6:55 AM 30.2 °F 20.8 °F 19.4 °F 64% 30.05 in 10.0 mi WSW 11.5 mph - N/A   Clear
7:15 AM 30.2 °F 23.4 °F 19.4 °F 64% 30.07 in 10.0 mi WSW 6.9 mph - N/A   Clear
7:35 AM 28.4 °F 21.2 °F 19.4 °F 69% 30.07 in 10.0 mi WSW 6.9 mph - N/A   Clear
7:55 AM 26.6 °F - 19.4 °F 74% 30.08 in 10.0 mi North - - N/A   Clear
8:15 AM 26.6 °F - 19.4 °F 74% 30.09 in 10.0 mi North - - N/A   Clear
8:35 AM 28.4 °F - 19.4 °F 69% 30.10 in 10.0 mi North - - N/A   Clear
8:55 AM 32.0 °F - 19.4 °F 60% 30.11 in 10.0 mi North - - N/A   Clear
9:15 AM 35.6 °F - 19.4 °F 52% 30.12 in 10.0 mi North - - N/A   Clear
9:35 AM 37.4 °F 33.8 °F 19.4 °F 48% 30.13 in 10.0 mi WSW 4.6 mph - N/A   Clear
9:55 AM 41.0 °F 38.0 °F 19.4 °F 42% 30.13 in 10.0 mi West 4.6 mph - N/A   Clear
10:15 AM 42.8 °F 40.1 °F 19.4 °F 39% 30.14 in 10.0 mi WSW 4.6 mph - N/A   Clear
10:35 AM 46.4 °F 45.2 °F 19.4 °F 34% 30.15 in 10.0 mi WNW 3.5 mph - N/A   Clear
10:55 AM 51.8 °F - 19.4 °F 28% 30.16 in 10.0 mi NNW 6.9 mph - N/A   Clear
11:15 AM 53.6 °F - 19.4 °F 26% 30.17 in 10.0 mi North 16.1 mph 19.6 mph N/A   Clear
11:35 AM 55.4 °F - 19.4 °F 25% 30.17 in 10.0 mi North 16.1 mph 23.0 mph N/A   Clear
11:55 AM 59.0 °F - 19.4 °F 22% 30.16 in 10.0 mi North 16.1 mph 25.3 mph N/A   Clear
12:15 PM 60.8 °F - 19.4 °F 20% 30.14 in 10.0 mi North 19.6 mph 33.4 mph N/A   Clear
12:35 PM 60.8 °F - 19.4 °F 20% 30.14 in 10.0 mi North 19.6 mph 27.6 mph N/A   Clear
12:55 PM 60.8 °F - 19.4 °F 20% 30.13 in 10.0 mi North 15.0 mph 25.3 mph N/A   Clear
1:15 PM 60.8 °F - 17.6 °F 19% 30.13 in 10.0 mi North 25.3 mph 34.5 mph N/A   Clear
1:35 PM 60.8 °F - 17.6 °F 19% 30.12 in 10.0 mi North 24.2 mph 33.4 mph N/A   Clear
1:55 PM 60.8 °F - 17.6 °F 19% 30.11 in 10.0 mi North 23.0 mph 31.1 mph N/A   Clear
2:15 PM 60.8 °F - 14.0 °F 16% 30.11 in 10.0 mi NNW 25.3 mph 38.0 mph N/A   Clear
2:35 PM 60.8 °F - 14.0 °F 16% 30.11 in 10.0 mi North 23.0 mph 36.8 mph N/A   Clear
2:55 PM 60.8 °F - 15.8 °F 17% 30.12 in 10.0 mi North 25.3 mph 31.1 mph N/A   Clear
3:15 PM 60.8 °F - 14.0 °F 16% 30.12 in 10.0 mi North 19.6 mph 32.2 mph N/A   Clear
3:35 PM 60.8 °F - 15.8 °F 17% 30.12 in 10.0 mi North 21.9 mph 27.6 mph N/A   Clear
3:55 PM 60.8 °F - 15.8 °F 17% 30.12 in 10.0 mi NNW 23.0 mph 29.9 mph N/A   Clear
4:15 PM 60.8 °F - 14.0 °F 16% 30.13 in 10.0 mi NNW 23.0 mph 33.4 mph N/A   Clear
4:35 PM 60.8 °F - 14.0 °F 16% 30.14 in 10.0 mi NNW 21.9 mph 28.8 mph N/A   Clear
4:55 PM 60.8 °F - 14.0 °F 16% 30.14 in 10.0 mi North 20.7 mph 28.8 mph N/A   Clear
5:15 PM 60.8 °F - 14.0 °F 16% 30.14 in 10.0 mi NNW 20.7 mph 28.8 mph N/A   Clear
5:35 PM 59.0 °F - 14.0 °F 17% 30.15 in 10.0 mi North - - N/A   Clear
5:55 PM 55.4 °F - 14.0 °F 20% 30.16 in 10.0 mi North 9.2 mph - N/A   Clear
6:15 PM 51.8 °F - 14.0 °F 22% 30.17 in 10.0 mi North 6.9 mph - N/A   Clear
6:35 PM 50.0 °F - 14.0 °F 24% 30.17 in 10.0 mi North 4.6 mph - N/A   Clear
6:55 PM 48.2 °F - 14.0 °F 25% 30.18 in 10.0 mi North 3.5 mph - N/A   Clear
7:15 PM 46.4 °F - 14.0 °F 27% 30.20 in 10.0 mi Calm Calm - N/A   Clear
7:35 PM 48.2 °F - 14.0 °F 25% 30.20 in 10.0 mi North 4.6 mph - N/A   Clear
7:55 PM 44.6 °F 41.4 °F 14.0 °F 29% 30.21 in 10.0 mi NNW 5.8 mph - N/A   Clear
8:15 PM 44.6 °F 40.7 °F 12.2 °F 27% 30.22 in 10.0 mi NNW 6.9 mph - N/A   Clear
8:35 PM 42.8 °F 40.1 °F 12.2 °F 29% 30.22 in 10.0 mi NNW 4.6 mph - N/A   Clear
8:55 PM 42.8 °F - 12.2 °F 29% 30.23 in 10.0 mi Calm Calm - N/A   Clear
9:15 PM 42.8 °F 40.1 °F 12.2 °F 29% 30.23 in 10.0 mi North 4.6 mph - N/A   Clear
9:35 PM 41.0 °F 39.0 °F 12.2 °F 31% 30.23 in 10.0 mi North 3.5 mph - N/A   Clear
9:55 PM 37.4 °F - 14.0 °F 38% 30.23 in 10.0 mi Calm Calm - N/A   Clear
10:15 PM 32.0 °F - 14.0 °F 48% 30.23 in 10.0 mi Calm Calm - N/A   Clear
10:35 PM 32.0 °F 26.4 °F 14.0 °F 48% 30.24 in 10.0 mi SSW 5.8 mph - N/A   Clear
10:55 PM 32.0 °F 28.7 °F 14.0 °F 48% 30.24 in 10.0 mi SSW 3.5 mph - N/A   Clear
11:15 PM 32.0 °F 26.4 °F 14.0 °F 48% 30.24 in 10.0 mi SW 5.8 mph - N/A   Clear
11:35 PM 32.0 °F 26.4 °F 14.0 °F 48% 30.24 in 10.0 mi WSW 5.8 mph - N/A   Clear
11:55 PM 32.0 °F 24.8 °F 14.0 °F 48% 30.24 in 10.0 mi SW 8.1 mph - N/A   Clear